Location: Vinland
(47.7731°N, 122.6974°W)
Time: 02:22:43
(UTC+00:00)

Transit 4A - Visible Passes

Search period start: 17 April 2024 00:00
Search period end: 27 April 2024 00:00
Orbit: 871 x 972 km, 66.8° (Epoch: 16 April)

Date Brightness Start Highest point End Pass type
(mag) Time Alt. Az. Time Alt. Az. Time Alt. Az.
17 Apr 9.2 04:35:29 10° NNW 04:40:21 27° NE 04:44:05 15° E visible
17 Apr 7.6 06:21:29 10° NW 06:27:20 80° WSW 06:27:35 78° SSW visible
17 Apr 10.0 08:09:49 10° WNW 08:11:04 13° W 08:11:04 13° W visible
18 Apr 8.8 04:44:25 10° NNW 04:49:42 34° NE 04:52:59 20° E visible
18 Apr 8.0 06:30:38 10° NW 06:36:19 56° WSW 06:36:29 56° SW visible
19 Apr 8.4 04:53:23 10° NNW 04:58:58 44° NE 05:01:55 25° ESE visible
19 Apr 8.5 06:39:52 10° NW 06:45:14 39° WSW 06:45:25 39° WSW visible
20 Apr 8.0 05:02:22 10° NNW 05:08:09 60° NE 05:10:52 31° ESE visible
20 Apr 9.1 06:49:17 10° NW 06:54:05 27° WSW 06:54:22 27° WSW visible
21 Apr 7.7 05:11:24 10° NNW 05:17:16 82° NE 05:19:52 35° SE visible
21 Apr 9.6 06:58:57 10° WNW 07:02:53 19° WSW 07:03:22 19° WSW visible
22 Apr 9.0 03:34:25 10° NNW 03:39:27 28° NE 03:44:27 10° E visible
22 Apr 7.9 05:20:29 10° NW 05:26:18 72° WSW 05:28:54 34° SSE visible
22 Apr 10.0 07:09:21 10° WNW 07:11:35 12° WSW 07:12:24 12° WSW visible
23 Apr 8.7 03:43:22 10° NNW 03:48:45 37° NE 03:54:08 10° ESE visible
23 Apr 8.3 05:29:39 10° NW 05:35:17 50° WSW 05:37:59 29° S visible
24 Apr 8.3 03:52:20 10° NNW 03:58:00 49° NE 04:03:35 10° ESE visible
24 Apr 8.9 05:38:57 10° NW 05:44:10 35° WSW 05:47:06 22° SSW visible
25 Apr 7.9 04:01:20 10° NNW 04:07:09 66° NE 04:12:45 11° SE visible
25 Apr 9.5 05:48:24 10° NW 05:53:00 24° WSW 05:56:16 15° SSW visible
26 Apr 7.8 04:10:23 10° NW 04:16:15 90° SW 04:21:58 11° SSE visible
26 Apr 9.9 05:58:14 10° WNW 06:01:46 17° WSW 06:05:19 10° SW visible
